STARLINK-32494, 62053

Orbit data source: Space-Track

STARLINK-32494, 62053 is a payload satellite owned by SpaceX/Seattle (US) in LEO that was launched on Thu, 21 Nov 2024 UTC via an FALCON 9 launch vehicle from the Air Force Eastern Test Range (AFETR). Payload-class satellites include a variety of spacecraft equipped with specific instruments for various scientific and technological missions. These include communications satellites like Starlink; space stations such as the ISS; scientific satellites like the Hubble; Earth observation satellites from companies like Planet Labs, Umbra, and HawkEye 360; GPS; miniature CubeSats for education and research; and military/defense satellites.

Loading next visibility...
Identifier
62053, 2024-216X
Orbit
LEO
Country
Flag of USUS
Related business
Manufacturer
SpaceX/Seattle
Mission
Operational Commercial Communications
Bus & Motor
STARLINK V2M, Unknown motor
Mass
730 kg wet, ~700 kg dry
Launch date (UTC)
2024-11-21 (1 year ago)
Launch vehicle
FALCON 9
Launch site
Air Force Eastern Test Range (AFETR)
Object type
Payload
Rocket body
Debris
Shape & HBR
Box + 2 Pan, 17.7 m
Radar Cross Section
33.884 m², Large (>1 m²)

Expand to show TLE details & history
Last TLE update: 16 hours ago

TLE from 16 hours ago
0 STARLINK-32494
1 62053U 24216X   26093.33335648  .00008915  00000-0  33336-3 0  9990
2 62053  43.0024 124.2080 0001147 271.2452  65.0324 15.27552042  5710
Epoch: 2026-04-03T08:00Z
TLE epoch observation values (Epoch: 2026-04-03T08:00:01.999Z)
Latitude
-16.05835°
Longitude
154.65526°
Altitude
486.015 km
Speed
7.623 km/s
True Right ascension
07h 05m 19s
True Declination
-15° 57' 49"
Sunlit
Object was in daylight at epoch
Visualization orbit readout
Latitude
Unknown
Longitude
Unknown
Altitude
Unknown
Speed
Unknown
Apparent Right ascension
Unknown
Apparent Declination
Unknown
Sunlit
N/A
Visualization observer readout
Local Sidereal Time
06:10:29
Azimuth
Unknown
Elevation
Unknown
Doppler factor
Unknown
Orbital elements
Apogee altitude
485.865 km
Perigee altitude
484.29 km
Semi-major axis
6,863.215 km
Eccentricity
0.00011
Inclination
43.0024°
RAAN
124.208°
Arg. of periapsis
271.2452°
True anomaly
65.04432°
Mean anomaly
65.0324°
Eccentric anomaly
65.03836°
Mean motion
3.81726 °/min
Orbital period
94.31 mins
BSTAR
0.00033336
Loading maneuver chart data...
Computing Atmospheric mass density...
Loading historical data...
Loading historical data...
Loading historical data...
Loading historical data...
Loading historical data...
Loading historical data...
Loading historical data...

Documentation

Showing up to 5 results
|